Location: La Pernelle
(49.6188°N, 1.2999°W)
Time: 11:01:50
(UTC+00:00)

Meteor 2-20 - Pass Details

Date: 30 October 2021
Orbit: 939 x 958 km, 82.5° (Epoch: 08 December)

Event Time Altitude Azimuth Distance (km) Brightness Sun altitude
Rises 05:54:16 0° 215° (SW) 3,603 7.2 -9.7°
Reaches altitude 10° 05:56:57 10° 223° (SW) 2,660 6.5 -9.2°
Maximum altitude 06:02:33 38° 290° (WNW) 1,416 4.9 -8.3°
Drops below altitude 10° 06:08:10 10° 357° (N) 2,668 6.7 -7.4°
Sets 06:10:53 0° 6° (N) 3,616 7.4 -7.0°
